Location: Brodie Road Observatory
(45.4241°N, 74.5431°W)
Time: 03:29:20
(UTC-04:00)

Daily predictions for brighter satellites

Satellite Brightness Start Highest point End
(mag) Time Altitude Azimuth Time Altitude Azimuth Time Altitude Azimuth
Lacrosse 5 4.5 03:45:47 15° NNE 03:45:47 15° NNE 03:46:54 10° NE
USA 215 3.6 03:57:31 10° NE 04:02:40 59° NE 04:02:40 59° NE
Cosmos 2369 Rocket 4.2 04:15:37 18° N 04:15:37 18° N 04:17:16 10° N
Cosmos 2227 Rocket 4.0 04:09:31 13° N 04:13:30 27° NE 04:18:18 10° ESE
SJ 16-02 3.6 04:15:03 23° E 04:15:03 23° E 04:17:45 10° NE
ADEOS II 3.0 04:14:53 10° NNE 04:18:53 44° ENE 04:18:53 44° ENE
NOSS 3-1 (C) 3.7 04:21:49 62° E 04:21:49 62° E 04:27:33 10° NE
USA 229 DEB 3.9 04:26:26 59° N 04:26:26 59° N 04:32:25 10° NE
USA 229 3.9 04:26:31 60° N 04:26:31 60° N 04:32:30 10° NE
Cosmos 1656 Rocket 4.5 04:29:40 44° NNE 04:29:40 44° NNE 04:33:29 10° NNE
NOSS 3-1 (A) 3.8 04:29:11 56° SE 04:29:29 56° ESE 04:35:48 10° NE
USA 267 3.1 04:29:29 10° SE 04:36:03 84° SW 04:36:09 83° WSW
ATLAS 3B R/B 4.5 04:33:50 13° NNW 04:38:23 24° NNE 04:43:37 10° ENE
Cosmos 2219 4.1 04:49:20 36° SSE 04:49:20 36° SSE 04:52:32 10° SSE
Cosmos 2297 Rocket 3.4 04:45:26 10° NNW 04:50:46 41° NE 04:56:04 10° SE
BREEZE-M DEB (TANK) 3.1 04:52:36 65° SE 04:52:36 65° SE 05:01:34 10° ENE
Cosmos 1295 Rocket 4.4 04:46:31 10° N 04:52:52 87° E 04:59:13 10° S
Cosmos 1943 Rocket 3.8 04:57:50 21° NNW 04:57:50 21° NNW 05:00:25 10° N
Cosmos 2341 Rocket 3.9 04:51:52 10° N 04:58:17 78° W 05:04:39 10° S
Cosmos 2181 Rocket 4.0 04:53:33 13° S 04:59:08 79° E 05:05:18 10° N
Cosmos 1356 Rocket 4.4 05:08:08 39° N 05:08:08 39° N 05:10:56 10° N
Cosmos 372 Rocket 3.9 05:05:53 58° SSW 05:06:57 86° ESE 05:12:14 10° NNE
ATLAS CENTAUR R/B 4.0 05:05:55 10° N 05:07:42 13° NE 05:09:30 10° ENE
CZ-4B DEB 4.3 05:08:59 10° NNE 05:14:30 74° ESE 05:20:01 10° S
Meteor 1-16 Rocket 4.2 05:10:32 10° NNW 05:16:10 62° W 05:21:55 10° S
Okean O Rocket 1.5 05:13:00 10° NNE 05:17:27 89° ESE 05:18:42 47° SSW
Landsat 4 4.4 05:15:14 10° SSE 05:18:54 52° ENE 05:22:34 10° N
Cosmos 2221 4.4 05:15:35 10° N 05:19:31 31° ENE 05:23:25 10° SE
PAYLOAD B 4.2 05:14:08 10° NNE 05:19:41 85° ESE 05:25:13 10° SSW
USA 81 4.0 05:15:26 10° S 05:20:42 87° E 05:26:02 10° N
CZ-4B R/B 3.3 05:15:25 10° NNE 05:20:56 77° ESE 05:26:31 10° S
Meteor 2-21 4.3 05:16:12 10° NNW 05:22:11 62° W 05:28:11 10° S
Cosmos 1269 Rocket 4.0 05:22:12 44° NW 05:23:36 60° WSW 05:28:48 10° S
Cosmos 1356 3.7 05:24:33 62° NNE 05:24:33 62° NNE 05:27:33 10° NNE
Lacrosse 5 3.6 05:24:58 18° NNW 05:26:53 22° N 05:30:51 10° ENE
Meteor 1-28 Rocket 4.2 05:24:13 10° SSE 05:27:54 49° ENE 05:31:36 10° N
Cosmos 2369 4.5 05:24:20 10° S 05:29:47 52° ESE 05:35:16 10° NE
COSMO-SKYMED 1 4.1 05:28:39 10° SE 05:32:37 36° ENE 05:36:37 10° N
Cosmos 494 Rocket 4.2 05:28:28 10° NNW 05:33:40 73° ENE 05:38:52 10° SSE
Meteor 2-5 Rocket 3.9 05:31:32 27° SW 05:34:33 53° WNW 05:40:13 10° N
Meteor 2-1 Rocket 4.3 05:29:49 10° N 05:35:46 90° W 05:41:35 10° S
Cosmos 2366 rocket 3.9 05:30:52 10° N 05:37:02 82° W 05:43:14 10° S
Okean-O 4.1 05:35:57 10° NNE 05:40:07 38° E 05:44:15 10° SSE
Cosmos 1125 Rocket 3.8 05:39:17 38° WSW 05:40:41 46° WNW 05:45:49 10° N
Meteor 2-14 Rocket 4.4 05:34:55 10° NNW 05:40:50 57° W 05:46:45 10° S
Cosmos 1842 Rocket 3.4 05:37:28 10° NNW 05:41:50 72° W 05:46:08 10° S
USA 215 3.9 05:40:41 10° NE 05:46:40 40° NNW 05:50:01 24° WNW
SL-8 Rocket 4.1 05:41:44 10° NNW 05:47:50 52° W 05:53:54 10° SSW
Meteor 2-16 Rocket 4.4 05:41:49 10° NNW 05:47:52 59° W 05:53:52 10° S
Cosmos 1726 3.7 05:46:15 10° N 05:49:41 36° ENE 05:53:05 10° SE
Cosmos 2278 3.9 05:46:34 10° SSW 05:52:12 76° ESE 05:57:52 10° NNE
SJ 16-02 1.9 05:52:07 34° WNW 05:52:37 35° WNW 05:56:41 10° N
Cosmos 1674 2.8 05:49:51 10° S 05:53:33 71° E 05:57:16 10° NNE
PSLV R/B 4.5 05:51:20 10° N 05:54:43 28° WNW 05:54:43 28° WNW
Cosmos 2227 Rocket 2.3 05:52:21 10° NNW 05:57:55 56° WSW 06:03:25 10° S
ADEOS II 3.2 05:55:19 10° N 05:59:25 23° WNW 05:59:48 23° WNW
Cosmos 864 Rocket 4.5 05:56:02 10° NNW 06:02:04 56° W 06:08:01 10° SSW
IDEFIX/ARIANE 42P 4.0 05:57:34 10° NNE 06:02:30 41° E 06:07:24 10° SSE
ATLAS 2AS CENTAUR R/B 3.8 06:00:50 10° SSW 06:08:20 57° ESE 06:16:14 10° NE
USA 116 4.0 06:05:58 10° S 06:09:41 48° W 06:13:56 10° NNW
Cosmos 1821 Rocket 4.5 06:06:04 10° N 06:12:27 67° E 06:18:48 10° SSE
NOSS 3-1 (C) 4.4 06:09:14 20° W 06:12:33 32° NNW 06:18:34 10° NNE
NOSS 2-3 (E) 3.9 06:10:10 10° SW 06:14:54 88° NW 06:20:32 10° NE
Cosmos 2251 Rocket 3.5 06:13:29 10° NNW 06:18:50 65° WSW 06:24:08 10° S
Meteor 1-24 Rocket 4.3 06:13:25 10° SW 06:18:56 38° WNW 06:24:20 10° N
USA 267 4.3 06:14:31 10° S 06:19:39 24° SW 06:23:31 15° W
Cosmos 1656 3.7 06:14:35 10° SSW 06:20:18 78° WNW 06:26:01 10° NNE
SKYMED 2 3.5 06:16:16 10° S 06:20:36 72° WSW 06:24:56 10° NNW
NOSS 3-1 (A) 4.2 06:16:40 17° W 06:20:43 36° NW 06:26:56 10° NNE
Cosmos 1818 4.1 06:16:01 10° SSW 06:21:21 63° ESE 06:26:45 10° NE
Okean 3 Rocket 3.5 06:17:49 10° S 06:22:17 86° W 06:26:44 10° N
CZ-2C R/B 4.5 06:21:10 10° SSW 06:25:23 32° W 06:29:34 10° NNW
Cosmos 1932 4.5 06:21:04 10° NW 06:27:29 70° WSW 06:33:43 10° SSE
GP-B 3.7 06:24:43 10° SSE 06:29:06 62° E 06:33:29 10° N
ATLAS 3B R/B 2.9 06:23:33 10° NW 06:30:18 72° NE 06:36:49 10° SE
SL-14 R/B 3.9 06:26:42 10° S 06:30:31 60° E 06:34:20 10° NNE
Meteor 1-31 Rocket 3.8 06:27:52 10° NNW 06:31:01 25° WNW 06:34:09 10° WSW
Cosmos 2297 Rocket 2.8 06:29:41 10° NW 06:34:43 34° WSW 06:39:43 10° SSW
KORONAS-FOTON 4.0 06:33:55 10° SSW 06:37:34 47° WNW 06:41:16 10° N
Cosmos 1607 4.3 06:31:21 10° NW 06:37:35 50° WSW 06:43:45 10° S
Cosmos 1908 4.3 06:39:15 10° NW 06:42:22 24° W 06:45:28 10° SW
Cosmos 1328 Rocket 4.4 06:38:27 10° N 06:42:42 53° ENE 06:46:54 10° SSE
Cosmos 1697 Rocket 2.7 06:37:30 10° SSW 06:43:09 75° WNW 06:48:51 10° NNE
Nadezhda 3 Rocket 4.0 06:37:08 10° SSW 06:43:22 62° WNW 06:49:35 10° N
Cosmos 2228 Rocket 4.4 06:39:20 10° N 06:43:45 46° ENE 06:48:06 10° SSE
ATLAS CENTAUR R/B 1.3 06:43:27 10° NW 06:47:15 81° NE 06:51:14 10° SE
NOSS 2-3 (C) 4.2 06:45:06 10° WSW 06:49:47 52° NW 06:55:24 10° NNE
Okean O Rocket 3.5 06:51:39 10° NW 06:53:08 12° WNW 06:54:38 10° WNW
EO 1 Del DPAF 4.5 06:51:09 10° SSW 06:54:09 22° W 06:57:10 10° NW
Cosmos 2084 Rocket 4.3 06:51:07 10° W 06:54:46 28° NW 06:58:18 10° NNE
Cosmos 2263 Rocket 3.7 06:50:31 10° NNW 06:55:42 36° NE 07:00:48 10° ESE
Cosmos 2221 3.6 06:53:21 10° NNW 06:56:58 25° W 07:00:33 10° SW
CZ-2C R/B 2.5 06:51:59 10° NNE 06:57:01 84° WNW 07:02:09 10° SSW
Cosmos 1455 4.2 06:53:35 10° N 06:57:02 32° ENE 07:00:27 10° SE
Cosmos 1980 Rocket 2.3 06:53:01 10° SSW 06:58:38 88° ESE 07:04:19 10° NNE
MSX 4.0 06:56:26 10° NNE 07:02:16 85° ESE 07:08:04 10° SSW
